This is the latest recevied weather packets stored in our database for station/object DC1MPP-9. If no packets are shown the sender has not sent any weather packets the latest 10 day(s).
| Time | Temp. | Humidity | Pressure | Rain* | Wind** | Luminosity | Snow |
|---|---|---|---|---|---|---|---|
| 1777735606 | 25° C | 25% | 961 hPa | - | - | - | - |
| 1777735365 | 25° C | 26% | 961 hPa | - | - | - | - |
| 1777735124 | 24.44° C | 23% | 961 hPa | - | - | - | - |
| 1777734883 | 25° C | 24% | 961 hPa | - | - | - | - |
| 1777734641 | 24.44° C | 24% | 961 hPa | - | - | - | - |
| 1777734400 | 25° C | 24% | 961 hPa | - | - | - | - |
| 1777734159 | 25° C | 25% | 961 hPa | - | - | - | - |
| 1777733918 | 24.44° C | 25% | 961 hPa | - | - | - | - |
| 1777733677 | 25° C | 25% | 961 hPa | - | - | - | - |
| 1777733436 | 25° C | 25% | 961 hPa | - | - | - | - |
| 1777733195 | 25° C | 27% | 961 hPa | - | - | - | - |
| 1777732954 | 25° C | 24% | 961 hPa | - | - | - | - |
| 1777732713 | 25.56° C | 25% | 961 hPa | - | - | - | - |
| 1777732472 | 25° C | 24% | 961 hPa | - | - | - | - |
| 1777731990 | 25° C | 24% | 961 hPa | - | - | - | - |
| 1777731749 | 25° C | 25% | 961 hPa | - | - | - | - |
| 1777731508 | 25° C | 24% | 961 hPa | - | - | - | - |
| 1777731267 | 26.11° C | 27% | 961 hPa | - | - | - | - |
| 1777731026 | 26.11° C | 25% | 962 hPa | - | - | - | - |
| 1777730785 | 25.56° C | 24% | 962 hPa | - | - | - | - |
| 1777730544 | 25.56° C | 26% | 962 hPa | - | - | - | - |
| 1777730302 | 25.56° C | 26% | 962 hPa | - | - | - | - |
| 1777730062 | 26.11° C | 25% | 962 hPa | - | - | - | - |
| 1777729821 | 26.11° C | 26% | 962 hPa | - | - | - | - |
| 1777729579 | 25.56° C | 25% | 962 hPa | - | - | - | - |
* Rain since midnight (hover to see other rain measurements)
** Current wind speed in m/s (hover to see current wind gust speed)